SL-16 DEB, 22607

Orbit data source: Space-Track

SL-16 DEB, 22607 is space debris in LEO originally from a launch on Fri, 26 Mar 1993 UTC launched from the Tyuratam Missile And Space Complex (TTMTR). Debris objects in space refer to the collection of defunct objects orbiting the Earth. Examples of debris include non-operational satellites, rocket bodies, and fragments generated from explosions, collisions, or faulty payload assembly.

Loading next visibility...
Identifier
22607, 1993-016R
Orbit
LEO
Country
Flag of CISCIS
Related business
Manufacturer
Unknown
Mission
Spacecraft
Bus & Motor
Unknown
Mass
Unknown
Launch date (UTC)
1993-03-26 (33 years ago)
Launch vehicle
Unknown
Launch site
Tyuratam Missile And Space Complex (TTMTR)
Object type
Payload
Rocket body
Debris
Shape & HBR
Unknown shape, 0.3 m
Radar Cross Section
Medium (>0.1 m² and <1 m²)

Expand to show TLE details & history
Last TLE update: 11 hours ago

TLE from 11 hours ago
0 SL-16 DEB
1 22607U 93016R   25289.11779218  .00000023  00000-0  60657-4 0  9991
2 22607  70.9901 266.4197 0171137  85.8023 347.8897 13.75921447634626
Epoch: 2025-10-16T02:49Z
TLE epoch observation values (Epoch: 2025-10-16T02:49:37.244Z)
Latitude
64.98758°
Longitude
-113.60225°
Altitude
866.043 km
Speed
7.488 km/s
True Right ascension
20h 54m 44s
True Declination
64° 51' 27"
Sunlit
Object was in daylight at epoch
Visualization orbit readout
Latitude
Unknown
Longitude
Unknown
Altitude
Unknown
Speed
Unknown
Apparent Right ascension
Unknown
Apparent Declination
Unknown
Sunlit
N/A
Visualization observer readout
Local Sidereal Time
08:54:54
Azimuth
Unknown
Elevation
Unknown
Doppler factor
Unknown
Orbital elements
Apogee altitude
1,102.215 km
Perigee altitude
850.49 km
Semi-major axis
7,354.489 km
Eccentricity
0.01711
Inclination
70.9901°
RAAN
266.4197°
Arg. of periapsis
85.8023°
True anomaly
347.4695°
Mean anomaly
347.8897°
Eccentric anomaly
347.68049°
Mean motion
3.44124 °/min
Orbital period
104.61 mins
BSTAR
0.000060657
Loading maneuver chart data...
Computing Atmospheric mass density...
Loading historical data...
Loading historical data...
Loading historical data...
Loading historical data...
Loading historical data...
Loading historical data...
Loading historical data...

Documentation

Showing up to 5 results
|